Theta_e
282 282 282 282 283 283 284 283 284 284 284 285 285 285 283 283 280 278 279 281 282 285 287 285 288 290 290 290 291 290 290 290 290 290 290 290 291 292 293 294 295 295 296 296 296 297 297 298 298 299 300 301 302 303 303 303 304 305 306 307 309 311 309 311 317 317 317 316 315 314 314 315 315 315
282 282 282 282 282 283 282 283 283 283 283 283 283 284 284 284 281 280 278 279 283 283 286 287 286 288 288 289 289 290 289 290 289 289 289 289 290 291 292 293 293 294 295 295 295 295 296 297 297 298 299 300 301 303 303 303 304 305 306 307 309 310 310 311 316 317 317 316 315 314 314 314 314 314
282 281 281 282 281 282 282 282 282 283 283 283 283 282 283 283 282 281 280 277 282 285 283 285 287 286 287 288 288 288 289 289 289 288 289 289 289 290 290 291 292 293 293 294 295 295 296 296 297 297 298 299 300 301 302 302 303 304 305 307 308 308 309 309 314 316 316 316 315 314 313 313 314 314
281 281 280 281 281 281 281 281 282 282 282 282 282 282 282 282 282 282 280 279 279 284 283 284 285 287 286 287 286 286 287 288 288 288 288 289 288 288 289 290 291 291 292 293 294 294 295 295 295 296 297 298 299 300 301 301 302 303 304 306 307 307 308 307 310 314 315 314 315 314 314 314 314 313
280 280 279 280 280 281 280 281 281 281 281 281 282 282 282 281 282 281 280 278 278 281 284 284 284 285 286 284 286 285 286 286 287 287 288 288 288 288 288 289 289 290 291 291 292 293 294 294 295 296 296 297 298 298 300 300 300 301 303 303 305 307 307 307 308 312 314 315 314 313 313 314 314 314
280 279 279 279 280 280 280 280 279 280 280 280 280 280 280 280 280 281 279 278 278 277 281 281 283 283 285 282 285 284 284 285 285 285 286 287 287 287 288 288 288 289 290 290 291 292 293 293 294 295 295 296 297 298 299 298 300 301 301 301 302 305 306 307 307 309 313 314 314 314 313 313 313 313
279 279 279 279 279 280 278 279 279 279 279 280 279 279 279 279 279 280 280 278 277 277 278 280 280 281 282 282 282 284 284 284 284 284 284 285 286 287 287 287 288 289 290 290 291 292 292 293 293 294 294 296 296 297 298 298 298 299 300 300 301 303 304 305 306 306 308 312 313 313 313 313 313 312
278 278 278 278 278 278 277 277 278 278 278 278 278 278 278 278 278 279 279 279 278 277 276 278 279 280 280 281 282 283 283 283 283 283 284 285 285 286 287 287 287 289 290 290 290 291 291 292 292 293 293 294 295 296 296 297 297 298 299 299 299 300 302 304 304 305 306 309 312 313 313 312 312 311
278 277 277 277 277 277 276 277 277 277 277 277 277 277 277 277 278 278 278 278 278 277 276 277 279 280 280 280 281 281 280 281 282 282 282 283 283 284 285 286 287 288 289 290 290 290 290 290 291 292 292 293 293 294 295 296 297 297 298 298 298 299 300 302 303 303 304 305 306 309 312 311 311 311
278 277 277 277 277 276 276 276 276 276 276 276 276 276 276 277 277 277 277 277 277 277 276 276 276 278 278 278 279 280 280 279 279 280 281 282 283 283 284 285 286 287 287 287 288 289 289 290 290 291 292 292 293 293 293 294 295 295 296 297 297 298 299 300 301 303 303 303 304 306 308 310 310 310
277 277 277 277 276 276 276 275 275 276 276 275 276 276 276 276 276 276 276 276 275 275 275 275 276 276 277 277 276 279 280 279 279 278 279 279 282 283 283 282 284 286 286 287 288 288 288 289 289 289 289 290 291 292 292 293 293 293 294 296 297 297 298 299 300 301 302 302 303 304 304 306 308 309
277 277 277 276 276 276 276 276 276 276 275 276 275 276 275 275 275 274 274 274 274 273 273 273 273 274 274 275 276 277 278 277 277 279 278 276 277 279 281 282 282 283 284 285 286 287 288 288 289 290 290 290 291 291 292 292 292 292 293 293 294 295 296 297 298 300 301 301 301 302 302 303 304 307
277 276 276 276 276 276 276 276 276 276 276 274 273 274 275 274 274 273 273 272 272 272 272 271 273 273 272 273 274 274 274 274 274 276 276 275 276 276 276 278 280 280 280 281 284 285 286 286 287 287 288 288 289 290 292 292 291 292 293 293 294 294 295 296 297 298 300 300 301 301 301 302 302 303
276 276 276 276 276 275 275 275 275 275 275 275 275 274 274 273 273 272 271 271 271 271 270 270 271 270 271 272 272 272 273 274 275 274 275 274 275 276 275 276 278 280 280 279 279 282 285 284 284 285 286 288 289 289 290 290 290 291 292 293 293 294 294 295 295 296 298 299 300 300 300 300 300 301
275 276 276 275 275 274 274 274 274 274 275 275 275 276 276 275 273 271 270 270 271 270 270 270 270 270 270 271 272 272 273 274 273 273 274 273 273 273 272 271 275 280 279 278 277 277 280 280 279 281 284 286 287 288 289 290 291 291 291 291 291 292 293 294 294 295 296 298 299 300 300 300 300 300
275 275 274 274 274 274 273 273 273 273 274 274 274 274 274 275 275 275 273 271 270 270 269 269 270 270 270 271 272 272 273 273 273 274 274 273 273 272 272 273 272 277 280 277 277 277 280 281 280 279 281 283 285 286 288 290 290 290 291 291 291 292 292 293 293 294 295 296 298 299 299 299 299 299
274 273 273 273 273 273 273 273 273 273 272 273 273 273 274 274 274 274 275 275 273 272 271 270 270 271 271 271 272 274 274 275 273 273 273 274 274 274 273 273 274 276 279 277 275 274 278 280 279 279 281 282 283 283 286 288 289 290 290 291 291 291 292 292 293 293 294 295 296 298 299 299 298 298
273 272 272 272 272 273 273 273 273 272 272 272 272 272 272 272 273 274 275 275 276 275 273 272 271 273 274 272 273 275 276 274 273 273 272 274 274 274 273 276 276 278 279 275 275 274 276 279 279 279 281 283 284 284 285 287 289 289 290 290 291 291 291 292 292 293 293 294 295 296 297 298 298 297
272 272 272 272 271 272 272 273 273 272 272 272 271 271 271 272 272 273 273 274 274 274 274 274 274 274 275 274 275 275 276 275 275 275 274 274 274 275 277 277 277 277 279 278 276 272 275 278 277 277 279 282 283 284 286 287 288 288 289 289 290 290 291 291 292 292 293 293 294 295 296 298 298 298
272 272 272 271 271 271 272 273 274 274 273 272 272 271 272 272 273 273 275 277 277 276 275 275 275 275 275 277 276 276 276 276 276 277 277 277 276 275 274 272 274 274 277 278 276 273 274 277 276 276 278 279 278 280 282 286 288 289 289 289 289 290 290 290 291 291 292 293 293 294 295 296 298 297
272 272 272 272 271 271 271 273 275 276 276 273 272 272 272 273 273 273 275 278 279 279 279 280 280 280 281 280 281 282 282 280 279 277 275 274 275 273 271 272 273 273 275 276 277 275 273 275 276 275 277 277 278 279 280 281 286 288 289 289 289 290 290 290 290 291 291 292 292 293 294 295 296 296
272 272 272 273 272 271 272 274 275 277 276 274 273 273 272 272 272 273 275 276 276 279 280 280 280 280 280 280 281 281 281 281 280 276 273 274 275 272 272 270 272 273 275 275 277 274 273 275 276 275 276 277 277 278 281 282 283 285 285 287 288 289 289 289 290 290 291 291 292 292 293 294 295 296
271 271 272 273 274 273 274 276 277 277 276 274 274 274 273 272 272 274 275 275 275 275 276 276 277 277 278 278 278 278 280 280 279 278 276 276 274 272 272 272 271 270 272 275 278 273 273 274 275 275 272 271 275 278 278 279 281 284 285 286 286 288 288 289 289 290 290 291 291 292 292 294 294 294
271 271 272 273 275 275 276 277 277 278 278 275 275 275 274 273 273 275 276 276 275 275 275 275 276 276 277 277 277 277 277 277 277 277 277 276 275 273 272 272 271 270 271 275 277 274 274 274 273 275 274 271 270 275 278 277 279 280 281 282 284 287 288 288 289 289 290 290 290 291 292 293 294 294
270 271 272 273 274 276 276 277 277 278 278 278 276 276 275 275 276 277 275 275 276 275 275 275 275 275 275 275 275 275 276 276 277 277 277 277 276 274 273 272 272 271 273 276 278 275 272 274 273 274 273 273 273 273 275 276 277 278 279 281 281 284 285 286 287 287 289 289 290 291 291 292 293 293
271 272 272 273 274 276 276 277 278 279 279 279 276 276 278 279 278 275 275 274 274 274 273 273 272 272 272 272 273 273 274 275 275 275 276 276 276 276 275 274 272 271 272 276 279 275 273 272 273 272 272 272 272 273 272 273 276 277 278 279 281 282 284 284 285 286 287 287 288 289 290 292 292 293
271 273 273 273 275 276 277 278 279 278 278 276 275 277 278 277 277 276 273 272 272 271 271 270 270 270 271 271 271 272 273 273 274 274 275 275 275 274 275 275 275 274 274 275 276 275 273 272 274 272 271 272 270 271 272 271 273 277 277 278 279 281 283 283 283 284 285 286 287 289 290 291 291 292
273 272 272 273 276 277 278 277 276 276 275 274 275 276 275 275 274 271 270 270 269 269 268 268 268 268 270 270 270 271 272 273 273 274 274 274 274 274 274 274 274 275 274 274 275 275 274 272 272 273 272 271 269 268 269 272 274 274 274 276 278 279 280 281 282 284 285 286 286 287 287 289 289 290
273 274 276 277 277 276 275 275 274 272 272 273 273 273 273 271 269 268 268 267 267 266 266 267 267 268 269 270 270 272 272 273 273 273 273 273 274 274 274 274 274 274 275 275 275 275 274 273 272 273 272 272 270 270 271 270 272 273 274 274 274 276 278 279 281 282 284 284 285 286 286 287 287 290
276 276 275 275 274 273 272 270 268 268 268 270 270 270 269 267 267 267 266 266 266 265 266 266 266 267 269 270 271 271 272 271 271 271 271 272 272 273 273 272 273 274 275 275 275 275 275 275 274 273 272 272 272 271 271 271 271 273 274 273 274 276 277 279 279 279 282 283 284 284 286 287 287 288
272 272 272 271 272 270 270 269 268 268 267 266 266 266 267 266 266 266 265 265 265 265 265 265 266 267 268 269 270 269 270 270 271 272 272 271 272 272 273 272 271 272 274 276 276 276 276 276 275 274 272 272 272 272 272 272 271 271 273 274 274 271 274 276 278 280 280 281 282 284 285 286 287 288
271 269 269 268 266 265 265 264 264 265 265 265 265 265 265 265 265 266 267 267 265 265 266 266 266 266 267 266 267 268 269 269 270 271 272 271 272 273 272 271 271 272 273 274 275 276 277 276 275 275 274 273 271 272 273 272 271 272 272 274 274 275 276 275 275 276 280 282 282 282 283 285 286 288
268 267 265 264 264 263 263 263 263 263 264 264 264 263 264 265 265 265 265 264 264 265 265 264 265 265 265 266 267 267 267 268 269 271 271 272 272 272 272 271 271 271 271 272 273 275 276 276 277 276 275 275 275 274 272 271 272 273 273 273 274 274 275 277 277 277 279 279 279 281 282 284 286 286
265 264 263 263 262 262 262 262 262 262 262 262 262 263 264 264 264 264 264 264 265 265 265 265 265 265 265 265 266 267 267 268 269 271 271 271 272 271 271 271 271 272 272 272 273 274 274 275 275 276 276 275 276 275 274 272 271 273 274 274 274 274 276 277 278 278 279 278 278 279 280 282 284 286
263 262 262 262 262 262 262 262 261 261 261 261 261 262 262 263 263 264 264 264 265 265 265 265 265 266 266 265 266 266 267 267 268 269 270 271 271 271 271 270 271 272 272 272 273 274 274 274 274 273 274 274 273 275 277 276 273 273 274 274 275 275 275 277 277 278 279 279 280 278 279 281 282 285
262 262 261 261 261 261 261 261 261 261 261 261 261 261 261 262 263 263 263 264 264 264 265 265 265 266 266 266 266 266 267 267 267 268 268 269 269 270 270 270 271 271 272 272 273 274 274 274 274 272 271 271 271 270 272 278 278 275 274 273 275 275 276 277 278 279 279 279 279 279 278 278 281 283
261 261 261 261 261 261 261 261 261 261 261 261 261 261 261 262 263 264 264 265 265 265 265 266 266 266 266 266 266 266 266 266 266 267 267 268 268 269 269 270 271 272 272 273 274 274 274 274 274 273 272 271 270 270 272 277 278 280 276 275 275 276 276 277 277 278 279 279 279 279 279 280 281 283
260 261 260 261 261 261 261 261 261 260 261 261 261 261 262 262 263 263 264 265 265 265 266 266 266 266 266 266 265 265 266 266 266 266 267 267 267 267 268 268 269 270 271 272 273 274 275 274 274 274 273 271 271 271 272 276 277 279 280 278 276 277 278 277 277 277 278 280 279 280 281 281 282 283
260 260 260 260 260 261 260 260 260 260 260 261 261 261 262 262 263 263 264 264 265 265 266 266 266 266 266 266 266 265 265 265 265 265 266 266 267 267 267 268 268 270 270 271 272 273 274 274 274 275 274 273 272 273 275 275 275 279 282 282 279 277 278 278 277 278 279 279 280 281 282 283 285 286
260 260 260 260 260 260 260 260 260 260 260 261 261 262 262 262 262 263 264 264 265 265 265 265 266 266 266 266 266 266 265 265 265 265 266 266 267 267 267 268 268 269 269 270 270 272 274 274 275 276 276 277 277 279 279 278 279 280 280 282 283 280 279 279 279 279 278 280 280 280 280 281 280 282
259 259 260 260 260 260 259 260 260 260 260 261 261 262 262 262 262 263 264 265 265 265 265 265 265 265 266 266 266 265 264 265 265 265 266 266 267 267 267 268 268 268 268 269 270 271 272 275 278 280 279 279 279 279 277 275 274 277 278 280 283 283 282 282 281 280 279 281 280 279 279 279 279 280
259 258 259 259 259 259 259 259 260 260 260 261 261 261 262 262 263 264 264 265 264 265 265 265 265 266 266 266 266 266 265 264 265 265 266 266 266 266 267 267 267 268 268 268 269 271 274 276 277 278 278 278 276 274 273 274 274 276 278 280 280 283 284 284 283 283 282 281 280 278 278 279 280 279
258 258 258 259 259 259 259 259 259 260 260 261 261 261 261 262 262 263 263 264 264 264 264 265 265 265 266 266 266 266 265 265 265 265 265 266 266 265 266 266 267 268 268 269 271 272 273 275 277 277 276 275 275 275 274 275 276 277 277 278 278 279 280 282 282 283 282 282 282 281 281 278 276 275
258 258 258 258 258 258 258 259 259 259 260 260 260 260 261 261 261 262 263 264 264 264 264 264 265 265 265 266 266 266 266 265 265 265 265 266 266 266 266 267 268 268 269 269 270 271 273 274 275 275 274 274 275 275 274 275 275 277 277 277 277 277 278 280 280 281 280 279 279 280 281 281 281 280
258 257 257 257 258 258 258 258 259 259 259 259 259 260 260 261 261 262 263 263 264 264 264 264 264 265 266 266 266 265 265 267 266 266 266 266 266 266 267 267 267 268 268 269 269 270 272 272 273 275 274 274 274 273 273 273 273 274 274 274 275 276 277 278 277 277 276 274 275 278 280 280 280 280
Wind_Speed
2 3 3 3 3 3 3 3 4 4 4 4 5 5 6 7 9 10 11 10 11 9 8 10 8 8 8 9 9 11 10 11 11 11 11 11 11 13 17 18 19 20 21 21 21 21 21 21 22 22 22 23 22 22 21 21 21 21 21 22 22 23 24 24 23 22 22 21 22 22 20 18 17 16
3 3 3 4 3 4 4 4 5 4 5 5 5 5 6 6 8 9 11 13 8 10 9 9 12 10 11 12 11 10 10 11 12 12 12 12 12 15 17 20 21 21 22 21 20 21 22 22 22 22 22 23 23 23 23 22 22 22 22 22 23 24 23 23 22 24 27 23 22 22 21 20 19 18
4 4 4 4 4 4 4 5 4 4 4 5 5 6 6 6 8 9 10 13 10 5 10 11 11 15 15 12 13 11 11 11 12 13 13 13 14 14 16 18 20 20 20 20 21 21 22 23 24 24 23 23 24 24 24 23 23 23 23 22 23 23 23 23 22 20 19 19 20 21 21 20 20 20
4 5 5 5 4 5 5 5 4 5 5 5 5 6 6 7 7 8 9 12 16 10 10 13 12 12 14 14 14 16 12 11 13 12 12 13 15 13 12 14 16 19 20 21 21 21 22 23 24 25 24 24 25 25 24 25 25 24 24 24 23 21 22 22 22 21 20 18 18 17 18 19 19 20
4 5 5 5 5 5 5 5 5 5 5 6 6 6 6 7 7 7 9 12 15 13 8 10 11 10 11 14 11 14 15 15 12 12 13 13 12 12 12 12 15 16 19 20 21 21 22 23 24 24 24 24 24 24 25 24 24 24 24 24 24 23 21 22 22 22 21 20 20 18 18 18 19 18
4 5 6 6 6 5 5 6 6 6 6 6 6 6 6 7 8 7 9 11 12 16 12 11 10 11 8 14 11 11 13 16 15 17 14 12 13 12 12 12 12 16 17 19 21 22 23 23 24 24 23 24 24 24 24 23 23 24 24 23 23 24 23 22 22 22 21 21 20 20 19 18 18 19
6 6 6 6 6 4 6 7 6 6 7 6 7 8 7 9 9 9 9 10 12 15 15 13 13 11 9 10 13 13 11 14 15 16 16 14 12 11 13 13 12 15 18 20 20 21 22 23 24 24 24 24 24 24 24 24 23 24 24 24 23 22 21 23 22 22 21 22 23 19 17 17 18 19
6 7 7 6 6 6 7 7 6 6 6 7 7 8 8 8 10 9 9 10 11 12 15 14 12 12 12 10 12 11 11 13 15 14 14 15 15 14 13 13 13 13 18 20 21 22 23 23 24 24 24 24 24 24 25 24 24 23 23 24 24 23 22 22 22 22 22 22 23 24 21 18 19 19
7 7 7 7 7 7 7 7 6 6 8 8 8 8 8 8 9 8 9 10 10 12 14 16 13 12 13 11 11 11 12 12 14 14 14 14 16 17 15 12 12 17 20 21 23 23 23 23 23 24 25 25 24 23 24 24 24 23 23 23 22 24 24 23 22 21 21 21 20 20 23 25 22 20
7 7 7 7 7 7 7 7 7 8 9 8 9 9 9 9 9 10 10 10 11 12 14 14 16 13 13 13 11 12 12 13 14 14 14 14 14 14 15 13 11 10 10 11 11 12 15 18 21 22 22 23 23 24 23 23 23 22 21 21 21 22 23 24 23 22 22 21 21 23 21 20 25 25
7 7 7 7 7 7 7 8 8 8 9 8 10 9 9 9 9 10 10 10 11 12 13 13 13 14 13 12 14 12 12 13 12 14 14 13 12 12 13 16 14 11 13 14 17 16 17 20 19 22 25 25 26 26 25 24 23 22 21 21 21 22 23 24 23 23 23 22 22 22 22 21 21 23
7 7 8 8 8 8 7 7 8 8 8 8 10 9 9 9 10 10 10 10 10 11 12 12 12 11 13 13 12 12 12 12 11 10 12 15 15 15 14 15 16 15 14 14 13 12 15 16 17 20 22 25 27 27 26 25 23 21 21 22 23 24 23 24 25 24 23 23 23 23 23 23 22 23
7 7 7 8 7 8 9 12 13 13 12 11 10 9 9 10 10 10 10 10 10 10 10 12 11 12 12 11 12 12 11 12 13 13 13 15 15 14 15 16 15 13 15 16 16 14 12 13 13 12 12 12 15 16 17 16 18 17 19 20 21 22 24 24 25 24 23 23 23 23 23 23 23 24
7 8 7 7 10 11 13 14 15 15 15 16 13 12 11 10 10 11 11 10 10 10 11 11 11 12 12 12 12 13 13 13 13 14 13 14 14 14 14 15 12 11 12 13 16 15 12 13 14 13 14 13 13 12 12 11 12 12 14 16 18 21 22 24 24 25 25 24 24 24 24 24 24 24
8 7 8 8 8 9 11 11 13 14 15 15 17 18 18 15 13 12 12 11 10 10 11 12 12 12 14 14 12 13 13 12 13 12 12 13 14 13 14 16 13 7 11 13 14 16 14 13 16 15 15 14 14 13 13 16 17 17 17 19 20 20 21 22 23 24 25 25 25 25 24 25 25 24
8 8 8 7 7 7 8 9 10 12 14 15 16 17 16 16 16 16 13 12 12 11 12 14 13 13 13 14 12 12 12 13 13 13 13 14 14 15 15 15 15 12 13 14 16 19 16 13 15 16 14 15 14 15 19 23 22 22 21 20 21 21 22 22 22 24 24 25 25 25 25 25 25 25
8 8 8 8 7 7 11 10 10 10 11 13 15 15 16 16 16 15 16 17 14 13 14 15 16 14 14 15 13 12 14 14 16 15 15 15 15 15 16 16 15 13 12 16 18 20 18 12 14 17 14 13 13 15 21 26 26 24 24 25 24 23 23 23 23 23 24 24 25 25 25 25 25 25
8 8 8 9 9 8 9 9 10 10 10 11 11 11 11 11 13 16 19 21 23 21 17 18 18 17 15 16 15 16 16 17 16 15 16 16 16 17 16 16 17 18 15 15 16 20 18 9 12 16 15 12 14 15 18 26 26 27 26 24 25 25 24 23 23 23 23 24 24 25 25 25 25 25
9 9 9 10 10 10 10 9 10 12 13 13 12 12 13 14 15 15 15 15 15 15 15 17 18 18 17 17 18 18 18 19 18 17 18 18 17 16 18 18 16 15 13 14 14 18 18 9 13 16 15 14 13 14 18 26 26 27 28 28 27 26 25 24 24 24 24 24 25 25 24 25 26 26
9 9 10 10 10 11 11 13 18 16 14 14 14 14 14 14 14 14 15 21 21 20 17 16 18 17 19 21 19 17 15 14 15 16 16 14 14 16 16 16 14 13 11 12 14 16 17 11 14 16 14 13 14 15 15 20 24 24 26 28 27 27 26 25 25 25 25 25 25 25 25 25 25 26
9 10 10 11 11 13 14 16 19 20 20 15 14 14 14 12 12 13 13 20 24 25 28 30 32 32 31 30 31 30 32 24 20 17 16 15 13 14 17 16 15 14 12 12 14 15 19 12 12 16 13 13 14 14 14 15 20 24 24 26 28 26 26 26 26 26 26 26 24 25 25 25 24 25
9 10 15 14 13 14 15 19 21 22 18 14 14 15 16 18 16 16 15 13 16 23 28 28 28 29 29 29 29 29 28 28 22 15 17 16 14 16 16 18 15 15 14 13 12 16 16 13 11 14 14 13 11 14 14 14 15 23 26 28 29 29 27 26 27 26 27 27 26 25 26 25 23 18
9 10 11 17 17 16 18 23 21 22 19 15 14 16 16 16 17 13 15 15 15 14 14 16 17 18 21 20 18 18 24 25 24 17 16 14 14 17 17 16 16 16 13 10 11 14 13 11 12 12 15 14 10 9 11 11 11 11 11 12 16 23 24 25 25 25 26 27 28 27 27 25 21 14
10 11 11 12 14 16 18 20 23 23 24 18 17 16 15 16 15 15 14 15 14 15 14 14 14 16 15 15 15 15 15 16 17 19 17 16 16 16 16 16 15 16 14 10 11 14 13 12 14 9 12 15 15 7 11 12 11 12 13 14 12 16 19 19 19 24 26 26 27 28 28 25 22 13
9 8 9 10 14 18 20 21 24 25 26 25 19 16 15 14 17 20 15 16 21 16 15 13 12 9 10 11 11 11 12 13 14 14 16 16 16 16 16 16 16 17 16 14 17 14 15 12 15 12 13 12 15 15 13 13 12 12 12 13 15 13 13 13 12 13 14 20 23 26 26 27 27 20
10 11 11 11 14 20 22 24 25 27 26 26 14 13 20 27 29 22 18 16 14 12 11 9 11 12 12 12 12 13 13 13 13 14 14 14 15 15 15 16 16 16 16 14 19 14 15 14 12 14 13 13 17 14 17 13 11 12 12 13 14 13 12 13 12 13 13 12 12 13 15 24 26 24
11 10 11 12 18 21 24 26 25 21 23 18 14 26 30 29 29 24 14 13 12 10 11 12 12 11 11 12 11 11 11 11 12 13 13 14 14 14 15 16 17 18 17 15 14 14 13 14 11 13 14 13 17 16 15 17 12 8 12 11 12 13 13 12 14 14 13 13 12 17 18 19 21 25
11 11 11 13 22 25 22 20 21 24 23 17 26 27 26 26 23 14 12 11 11 11 11 10 10 10 10 10 10 10 10 11 11 12 13 13 14 14 14 16 17 17 18 17 15 14 15 16 15 14 16 15 16 17 17 16 15 14 15 14 13 13 13 14 13 12 13 14 13 13 11 10 11 12
10 15 21 23 20 18 21 24 23 18 18 19 20 21 21 19 10 9 9 9 10 10 10 10 11 11 11 11 12 12 13 13 13 13 12 13 13 14 16 16 16 16 15 14 15 15 15 16 17 16 15 14 15 16 15 18 14 15 13 14 14 11 11 14 14 14 13 13 13 13 12 11 12 10
19 18 18 18 17 17 16 14 11 11 11 17 17 16 14 8 8 8 9 9 10 10 11 11 12 12 11 11 12 13 13 12 13 12 12 12 12 12 13 14 14 14 14 14 14 15 17 18 17 18 17 17 15 17 15 15 17 15 15 15 15 14 14 14 15 15 14 13 14 14 13 12 13 10
9 11 10 11 17 14 17 15 13 12 12 9 8 8 7 7 8 8 8 9 10 11 11 11 11 11 11 12 12 12 11 11 12 11 12 12 13 12 12 14 14 14 14 12 13 16 15 16 18 18 18 16 15 17 16 14 18 16 14 14 14 15 11 11 13 14 14 15 15 14 13 13 13 12
6 6 10 11 7 6 6 6 5 6 6 7 8 8 8 8 9 11 14 13 10 10 10 10 11 11 11 11 11 11 11 12 12 12 12 11 13 12 13 14 14 12 13 12 12 12 13 16 17 17 17 17 16 15 14 15 16 16 15 14 15 16 15 15 15 14 15 13 14 15 15 13 13 11
5 5 6 5 5 5 6 6 6 6 7 7 7 8 8 8 8 9 8 9 9 10 10 11 11 11 11 11 11 12 12 12 12 11 12 12 13 13 12 14 15 14 13 13 11 13 9 11 13 16 17 16 17 16 14 15 15 14 15 15 14 16 15 14 14 14 14 15 14 14 15 14 13 14
4 4 5 4 5 5 5 6 7 8 8 9 10 8 10 9 8 9 9 9 9 10 11 11 12 11 11 11 11 11 12 12 12 12 14 13 13 13 13 14 14 13 14 14 13 13 12 11 11 13 14 15 15 16 15 14 16 14 15 14 15 15 13 13 14 15 15 14 15 16 15 14 14 13
3 3 4 4 4 4 5 7 7 7 8 9 9 10 11 9 9 9 9 9 10 11 11 11 10 11 11 11 11 12 12 13 13 12 12 12 13 13 14 14 14 13 13 14 13 12 12 12 12 12 13 13 13 14 20 20 16 17 15 16 15 16 16 14 14 14 14 13 13 15 15 14 14 13
3 2 3 4 4 4 6 7 7 7 8 8 8 9 10 10 9 9 9 10 11 11 10 11 11 11 11 11 12 12 12 13 13 12 12 12 13 13 13 14 14 14 13 14 15 13 12 12 12 12 12 11 11 12 13 24 27 16 16 16 15 15 15 14 14 14 14 14 13 12 14 15 15 13
3 3 3 4 4 5 7 7 7 7 7 8 9 8 9 10 11 10 11 13 11 10 11 11 11 11 12 12 12 12 12 12 12 12 12 12 12 13 13 14 14 13 13 13 13 13 12 13 12 12 13 13 13 13 15 10 22 30 15 16 15 14 15 14 14 14 14 14 13 12 13 13 14 12
3 3 3 4 4 6 6 7 7 7 8 8 8 9 9 9 10 11 11 10 11 11 11 11 11 11 12 12 12 12 12 12 12 12 12 12 12 12 12 13 14 13 14 13 13 13 13 13 13 12 11 12 12 13 13 11 9 14 27 19 14 14 13 13 14 14 13 12 12 11 11 13 12 11
3 3 3 4 5 5 6 7 7 8 8 8 8 9 9 10 10 10 10 11 11 11 12 12 12 12 12 12 12 12 12 12 12 12 12 12 12 13 13 13 14 13 14 14 14 13 12 13 13 13 13 13 14 14 14 15 13 11 12 28 18 12 12 12 14 14 13 11 11 10 10 11 8 3
3 3 4 4 4 5 6 7 7 7 8 8 9 9 9 10 10 10 10 10 11 12 11 12 13 13 12 12 12 12 12 13 13 12 13 13 13 13 13 13 14 14 14 15 15 14 13 13 12 13 13 14 14 12 11 12 13 10 9 13 29 19 12 11 13 13 12 11 10 10 10 9 8 4
3 3 4 4 4 5 5 6 7 7 8 9 9 10 9 9 10 10 10 11 11 11 11 11 11 12 12 13 13 12 13 13 12 12 13 13 14 14 16 17 14 13 14 15 15 15 15 13 14 20 18 12 12 12 12 11 11 11 10 9 14 25 26 19 13 11 10 9 10 12 12 11 10 9
3 4 4 4 4 5 5 6 6 7 8 8 8 9 10 9 10 14 13 13 11 11 11 11 11 12 12 12 13 13 12 13 13 13 13 13 13 14 15 13 13 13 13 14 15 15 15 14 16 15 10 10 10 9 10 11 11 11 10 7 2 8 17 23 24 13 7 6 8 6 8 7 4 7
4 4 4 4 4 5 5 6 6 6 8 8 8 9 9 10 9 10 9 10 10 10 10 11 11 11 12 12 12 12 12 13 13 13 14 14 13 14 13 13 13 14 14 14 15 15 15 14 12 11 9 9 9 10 10 11 10 10 6 3 3 1 1 3 3 6 4 8 11 6 3 1 4 5
3 3 4 4 4 5 5 5 6 6 7 8 8 8 8 9 10 10 10 10 10 10 10 11 12 12 12 12 12 12 12 12 13 13 13 13 13 13 13 14 14 14 14 14 14 14 13 13 11 9 8 8 8 8 9 8 9 7 5 1 1 0 2 0 2 5 8 10 13 12 7 8 7 7
3 3 4 4 5 5 5 5 5 6 6 8 8 8 8 9 9 9 10 10 9 10 10 11 12 12 12 12 12 13 13 14 14 12 12 13 13 13 13 13 13 14 13 13 13 13 12 12 11 9 8 7 5 5 5 5 5 4 2 1 1 0 0 0 1 1 2 3 10 14 5 5 6 7
Wind_Direction
334 342 339 331 323 326 330 316 317 320 309 306 302 296 296 301 296 306 304 301 305 305 305 302 294 296 298 305 304 300 295 297 303 300 294 289 289 292 296 297 299 300 298 298 299 298 296 293 290 287 286 284 282 281 281 280 278 276 276 276 276 279 277 279 252 241 235 220 220 220 223 226 227 230
338 327 326 320 318 323 319 313 309 304 303 297 296 292 289 282 280 290 295 295 289 293 298 293 300 303 304 302 297 292 291 289 293 296 293 289 285 289 293 293 293 290 290 290 292 293 292 290 288 286 283 283 282 281 280 280 280 278 276 275 275 275 276 273 265 242 238 224 217 220 222 222 220 223
330 327 322 320 314 322 315 308 301 296 291 293 292 289 282 275 271 277 283 289 280 274 291 288 289 300 302 301 298 295 290 291 293 292 288 285 284 284 282 277 278 283 286 286 286 287 288 289 288 286 284 282 281 280 280 279 279 279 276 273 272 273 275 276 273 252 227 215 215 218 221 219 219 222
316 315 314 312 312 316 312 305 302 298 292 287 286 283 279 276 270 270 274 271 283 286 279 281 281 277 290 298 301 301 300 292 287 292 289 287 288 283 285 276 275 279 282 283 284 284 286 286 286 285 283 281 280 279 278 278 279 279 278 275 270 268 270 272 273 266 234 217 215 216 218 218 219 223
307 305 305 303 303 305 304 304 305 299 295 291 285 281 281 275 272 273 274 279 286 288 278 277 285 286 287 286 286 295 303 306 306 300 295 293 288 284 281 281 273 269 274 278 281 283 284 284 283 282 283 282 280 278 277 275 276 276 276 275 272 268 266 268 270 268 256 231 220 217 219 221 222 221
311 306 302 303 305 307 301 302 299 299 299 297 290 287 285 281 281 274 278 281 283 291 298 291 290 293 284 282 289 294 302 304 310 308 302 293 289 286 282 280 279 275 273 273 276 278 282 283 282 281 281 281 280 279 277 275 273 273 274 273 271 268 265 264 264 269 266 253 238 228 223 220 223 227
309 305 304 304 308 308 305 303 300 298 295 293 292 291 290 288 287 285 279 282 286 290 293 297 297 297 298 293 300 305 301 299 300 299 303 305 301 291 286 282 280 279 276 273 274 273 277 281 281 281 280 278 278 279 278 276 273 271 272 273 273 270 265 260 260 261 267 266 250 234 220 217 221 227
303 301 302 300 309 307 300 300 301 296 294 297 295 292 290 288 287 288 285 280 281 290 293 296 297 302 304 304 302 304 302 298 297 299 300 302 301 298 294 290 288 282 279 277 275 275 275 275 278 280 280 278 277 277 277 277 274 271 269 268 269 269 267 263 259 258 258 260 259 243 229 220 221 225
288 289 288 296 300 301 297 297 296 299 299 294 293 289 292 289 291 290 286 285 283 285 286 292 295 301 299 301 302 306 307 304 299 302 302 304 302 302 298 293 287 285 281 275 276 274 270 270 271 275 277 278 277 275 275 275 274 272 269 268 267 267 266 263 259 255 253 254 256 256 245 235 228 227
281 282 285 287 288 288 290 290 292 292 291 292 287 287 287 290 290 290 289 286 286 284 283 288 296 299 302 306 303 307 309 306 304 302 302 299 296 299 304 304 303 303 300 299 291 285 281 275 273 273 273 274 276 276 274 272 272 271 269 267 266 265 265 264 261 256 251 249 248 249 250 249 242 236
275 276 277 279 280 280 282 286 287 290 290 287 287 288 290 291 291 290 289 289 288 286 287 287 287 294 298 300 303 308 304 299 295 300 305 303 305 307 311 307 307 303 299 294 290 285 280 278 276 275 274 273 272 274 274 271 268 267 267 266 266 265 264 263 261 258 253 248 246 244 244 245 246 243
271 270 272 272 273 273 274 282 288 290 292 294 292 292 293 293 293 293 294 294 292 291 292 290 295 297 299 303 299 303 307 303 299 304 311 307 307 306 304 300 304 308 309 308 305 297 291 286 281 279 272 263 264 266 268 267 262 259 261 264 266 266 265 263 261 258 254 248 245 244 242 240 241 243
275 271 270 270 269 270 275 276 279 281 282 290 291 290 291 293 292 290 291 292 292 291 290 291 293 295 296 298 304 309 310 307 305 310 306 295 295 298 297 294 292 299 302 302 304 305 304 301 296 291 286 284 279 273 269 268 264 258 258 259 260 261 262 262 261 258 255 250 244 242 242 241 238 238
275 273 272 273 270 270 272 274 276 276 277 280 278 283 286 287 289 289 290 289 290 291 291 289 295 294 293 297 302 302 301 301 300 300 299 296 301 303 297 292 297 308 301 298 294 294 300 304 302 299 294 291 285 280 277 274 275 270 264 260 258 258 259 261 260 259 255 251 246 241 239 239 238 237
284 279 279 280 279 274 270 270 270 274 275 280 283 281 280 280 282 288 288 286 288 289 288 290 289 288 290 293 295 294 298 295 294 294 296 295 298 300 302 301 305 317 325 319 307 296 292 289 286 285 285 289 287 284 277 276 276 267 261 264 264 263 263 262 261 260 258 254 248 242 238 236 236 236
283 286 287 285 283 277 275 280 283 279 279 281 281 283 283 281 279 277 278 284 287 285 285 283 281 285 285 289 289 291 292 293 293 292 290 288 290 293 293 292 295 309 318 310 304 295 294 296 288 282 277 278 281 283 284 283 278 277 273 269 266 261 259 259 260 260 260 258 253 247 241 237 235 235
281 286 287 287 280 280 278 274 275 279 284 284 281 283 283 280 275 274 276 273 271 276 276 277 278 275 282 283 283 282 285 288 288 290 288 287 285 285 289 291 292 295 310 305 296 291 288 292 291 286 284 282 279 277 276 276 276 271 269 268 265 262 259 258 257 258 259 260 258 253 245 240 236 235
280 282 285 287 285 283 283 281 282 284 286 291 293 289 285 279 273 269 269 273 275 273 270 271 272 273 270 273 278 279 278 280 280 282 281 282 281 280 277 282 288 295 299 289 290 286 286 293 289 285 289 290 289 285 280 277 275 274 269 264 264 264 261 258 257 256 256 257 258 256 250 243 239 236
279 279 280 281 282 283 283 281 283 290 291 292 287 279 269 264 264 265 265 268 270 270 266 265 267 270 269 268 271 271 270 268 270 271 272 275 275 277 282 284 284 286 286 283 281 280 287 302 292 285 289 295 295 296 292 283 276 273 273 271 268 267 265 262 259 257 255 255 255 256 254 247 241 238
273 280 281 281 281 282 283 283 287 285 286 286 283 279 269 262 260 257 254 254 257 262 264 265 264 262 260 256 258 255 252 255 258 261 264 266 273 283 286 286 291 284 283 277 278 281 285 299 293 287 287 286 282 279 276 285 284 279 274 273 270 268 267 266 264 260 256 255 254 254 255 252 246 240
273 274 274 278 283 286 284 284 285 288 289 288 281 277 276 273 267 259 257 260 266 268 266 267 264 267 271 272 273 274 275 275 279 284 283 282 290 285 288 287 288 285 284 276 273 280 285 297 294 290 292 290 286 283 280 275 278 282 279 276 275 272 268 266 264 262 259 256 254 253 254 254 251 244
274 275 274 273 278 281 282 283 286 287 291 288 288 286 284 282 275 275 272 273 268 270 268 271 271 271 274 277 280 280 279 280 281 281 281 286 287 281 280 283 284 283 278 276 279 278 276 290 286 289 291 291 284 286 288 287 275 271 271 270 268 268 268 268 266 264 262 259 256 254 253 253 251 246
274 277 276 276 276 277 281 285 287 291 293 291 287 284 282 278 276 273 281 275 277 275 271 269 270 266 269 274 274 273 274 273 273 270 270 274 272 275 276 277 284 282 272 273 274 274 280 285 284 295 300 293 284 279 279 281 292 303 298 283 273 270 269 267 266 265 263 261 259 256 253 251 248 245
277 273 273 279 281 282 285 288 291 293 294 292 288 282 277 281 282 288 286 282 279 280 280 279 269 270 275 275 274 270 268 266 263 263 263 266 267 270 272 271 269 270 276 275 276 276 280 283 285 283 280 293 296 295 295 295 291 293 296 294 295 283 277 274 269 264 260 260 259 257 254 252 246 243
269 277 285 290 288 290 291 292 294 295 294 291 288 288 286 284 292 303 303 301 303 298 295 292 293 295 297 291 285 279 274 269 266 264 263 264 263 265 267 269 269 269 270 272 274 272 277 278 280 285 279 276 279 291 286 287 286 285 285 283 282 280 279 275 276 277 271 261 255 252 252 251 247 242
288 288 289 289 290 291 293 295 296 296 298 305 313 307 306 306 307 307 303 301 301 301 304 304 295 293 288 283 278 274 271 269 269 268 269 269 269 268 269 269 272 274 274 276 278 278 281 277 278 281 279 280 280 281 290 285 287 291 286 281 279 277 274 275 273 272 272 272 270 258 251 247 248 245
285 287 289 291 292 293 295 297 304 315 322 322 310 307 304 303 304 306 304 302 302 300 300 296 293 290 284 277 276 275 273 275 275 273 269 269 269 268 266 265 266 269 276 280 279 278 278 278 277 276 278 278 282 284 277 286 289 286 287 289 287 283 280 274 267 265 265 267 268 266 263 257 253 249
288 292 292 290 293 298 309 320 322 319 318 312 307 303 304 305 309 307 304 301 301 301 298 294 290 287 283 281 278 274 275 278 279 278 277 275 272 268 267 266 265 265 268 270 269 265 267 270 270 265 268 270 272 273 279 276 279 284 283 279 278 279 283 280 274 267 260 260 264 262 260 256 247 248
284 287 292 299 310 323 324 319 317 313 308 308 308 308 309 313 311 310 307 306 304 297 293 291 289 285 281 280 279 279 280 281 281 277 275 271 268 265 263 261 259 259 259 258 255 256 256 264 268 266 263 260 262 266 268 275 279 278 278 284 278 274 274 272 276 269 263 258 254 258 256 254 255 238
292 300 309 317 323 320 317 315 312 309 310 312 313 314 315 312 310 310 309 304 302 297 296 292 290 289 290 287 287 287 285 281 276 276 275 275 271 268 267 266 262 256 251 247 248 255 259 260 263 262 263 261 257 264 265 272 272 270 273 271 277 280 272 268 262 270 274 268 259 257 256 255 254 248
312 309 315 317 312 312 313 311 308 308 313 314 314 315 314 313 309 307 302 301 298 295 291 291 289 291 291 291 289 285 284 281 279 278 277 275 273 271 267 266 266 267 265 256 251 258 254 259 261 262 261 261 260 257 262 261 268 270 269 269 271 269 266 270 278 273 262 257 263 258 258 252 249 239
325 328 315 313 313 311 312 311 310 309 310 311 316 317 317 311 306 300 298 296 290 286 288 290 293 290 293 292 291 291 287 284 282 281 278 275 277 275 276 272 267 267 272 270 262 249 254 262 262 259 256 256 257 258 255 255 258 263 265 264 264 266 267 266 259 260 271 271 258 254 249 247 243 237
334 316 311 310 315 318 316 317 316 317 318 318 314 312 315 314 309 307 307 304 301 300 299 295 293 292 291 290 290 289 287 286 286 285 284 282 282 282 276 272 273 273 274 273 271 272 265 265 258 257 257 256 253 253 256 260 256 257 260 259 258 260 265 259 259 255 253 260 263 262 257 249 246 244
319 311 303 305 314 317 319 317 321 322 323 323 324 318 318 312 306 302 301 301 303 305 302 298 295 293 292 290 291 290 290 290 290 290 290 289 287 286 285 283 281 277 273 275 276 277 281 271 259 254 247 244 241 240 241 247 254 254 251 256 255 260 258 259 257 253 246 245 252 255 251 249 247 244
308 303 300 303 305 305 313 314 312 311 317 321 318 318 316 308 304 302 300 301 304 305 302 300 297 297 296 294 294 294 294 295 294 293 290 289 289 285 286 284 285 282 276 275 276 275 275 275 270 265 260 255 254 245 230 231 247 247 251 248 253 252 258 253 253 250 244 239 238 247 254 252 248 242
289 284 289 296 299 308 314 311 306 312 315 311 308 307 308 308 308 306 305 308 306 300 299 302 305 304 303 303 302 299 297 295 293 293 294 292 292 290 287 285 284 282 279 276 276 275 270 269 267 264 264 262 255 256 260 225 220 234 237 248 244 248 249 249 247 246 240 237 234 237 245 249 249 239
283 281 283 287 294 308 312 314 315 310 308 304 303 300 299 301 306 307 304 305 301 303 307 306 305 306 306 305 304 302 299 298 297 297 294 293 291 291 290 289 287 287 285 280 276 274 272 268 265 263 260 260 256 258 258 266 220 216 227 237 243 241 245 243 243 242 237 236 238 236 242 243 242 238
269 280 282 283 294 305 303 308 310 304 305 301 295 295 293 293 298 302 305 307 308 305 309 310 309 307 306 307 305 302 300 299 298 296 295 295 294 293 292 294 295 294 291 288 283 277 273 269 266 261 257 256 264 258 272 267 272 232 217 224 232 235 234 237 241 243 239 233 233 233 235 243 243 243
263 271 277 284 296 304 302 306 304 303 298 297 294 293 296 299 300 302 307 308 309 310 313 313 311 309 308 307 305 304 302 302 301 298 297 296 295 295 294 294 293 294 296 295 292 285 275 270 265 264 263 267 266 271 276 284 282 287 241 217 223 232 230 234 240 241 239 234 230 228 233 240 257 267
270 271 273 282 289 294 298 304 299 298 297 293 292 293 294 296 301 303 302 305 311 313 310 308 309 311 309 308 307 304 302 298 298 298 298 297 297 295 295 296 296 296 295 291 290 288 284 277 272 264 265 268 276 277 288 286 283 269 261 236 216 215 224 228 236 240 239 236 231 224 224 222 224 207
268 270 269 274 280 285 284 294 298 296 292 291 289 290 291 293 296 295 297 302 309 311 311 311 311 312 310 309 309 308 305 302 301 300 299 299 297 297 296 298 294 292 290 290 291 290 288 290 291 290 286 283 282 287 278 269 265 266 256 244 220 214 221 227 236 238 237 234 232 231 229 223 223 217
257 262 269 270 274 280 283 282 285 288 288 289 291 294 298 298 292 296 298 301 303 306 309 311 314 314 313 313 312 310 306 304 303 301 302 302 301 299 299 297 294 293 291 290 292 291 293 291 288 282 282 283 279 268 263 265 269 273 271 265 239 224 231 234 236 243 246 241 234 228 236 234 215 210
251 259 262 265 268 270 274 277 282 285 287 289 290 292 296 297 298 300 300 302 306 308 311 314 315 313 312 313 313 312 308 305 303 303 302 301 301 301 300 296 294 292 290 290 289 292 292 295 292 295 290 282 274 273 272 273 272 271 262 233 239 208 195 37 346 266 265 23 13 330 282 176 171 204
259 261 263 265 268 270 269 272 279 282 288 288 290 292 292 296 298 300 302 303 304 309 313 314 315 316 316 316 314 312 309 307 306 305 303 303 302 300 298 298 297 295 295 292 295 294 298 298 300 296 289 285 291 294 295 301 287 278 270 253 55 262 227 195 66 69 63 38 24 18 51 60 53 38
257 264 271 271 270 272 270 274 280 285 286 287 287 288 292 293 294 298 299 302 303 307 311 315 317 315 314 316 317 314 312 311 310 306 305 304 302 301 299 299 300 301 299 299 297 299 302 306 303 297 289 292 301 300 305 312 321 335 344 6 141 189 103 139 187 148 64 38 3 357 25 68 81 75